User: anonymous   Login
Location: *
(51.1248°S, 108.4023°W)
Time: 07:04:10
(UTC+00:00)
Language:

RESURS O1 DEB - Orbit

View from above orbital plane
View from above orbital plane
View from above satellite
View from above satellite

Ground track
Ground track

The orbit data is extracted from the following two-line orbital elements,

1 49234U 94074FN  22028.36854276  .00006221  00000-0  77101-3 0  9991
2 49234  97.8903  79.3867 0001680 204.3495 155.7640 14.83030696 26154
Epoch (UTC): 28 January 2022 08:50:42
Eccentricity: 0.0001680
inclination: 97.8903°
perigee height: 618 km
apogee height: 621 km
right ascension of ascending node: 79.3867°
argument of perigee: 204.3495°
revolutions per day: 14.83030696
mean anomaly at epoch: 155.7640°
orbit number at epoch: 2615

The dashed part of the orbit path shows where the satellite is in the earth's shadow,  

DLR